CZ-6A DEB, 56236

Orbit data source: Space-Track

CZ-6A DEB, 56236 is space debris in SSO originally from a launch on Fri, 11 Nov 2022 UTC launched from the Taiyaun Space Center, China (TSC). Debris objects in space refer to the collection of defunct objects orbiting the Earth. Examples of debris include non-operational satellites, rocket bodies, and fragments generated from explosions, collisions, or faulty payload assembly.

Loading next visibility...
Identifier
56236, 2022-151ABC
Orbit
SSO
Country
Flag of CNCN / PRC
Related business
Manufacturer
SAST
Mission
Spacecraft
Bus & Motor
Unknown
Mass
Unknown
Launch date (UTC)
2022-11-11 (4 years ago)
Launch vehicle
Unknown
Launch site
Taiyaun Space Center, China (TSC)
Object type
Payload
Rocket body
Debris
Shape & HBR
Unknown shape, 0.1 m
Radar Cross Section
Medium (>0.1 m² and <1 m²)

Expand to show TLE details & history
Last TLE update: 13 hours ago

TLE from 13 hours ago
0 CZ-6A DEB
1 56236U 22151ABC 26236.06045660  .00003320  00000-0  91601-3 0  9997
2 56236  98.5952 264.1091 0067177 178.7442 181.3931 14.46159653186461
Epoch: 2026-08-24T01:27Z
TLE epoch observation values (Epoch: 2026-08-24T01:27:03.450Z)
Latitude
0.00007°
Longitude
-90.00287°
Altitude
788.975 km
Speed
7.434 km/s
True Right ascension
17h 36m 26s
True Declination
0° 00' 00"
Sunlit
Object was in daylight at epoch
Visualization orbit readout
Latitude
Unknown
Longitude
Unknown
Altitude
Unknown
Speed
Unknown
Apparent Right ascension
Unknown
Apparent Declination
Unknown
Sunlit
N/A
Visualization observer readout
Local Sidereal Time
05:48:58
Azimuth
Unknown
Elevation
Unknown
Doppler factor
Unknown
Orbital elements
Apogee altitude
783.123 km
Perigee altitude
687.551 km
Semi-major axis
7,113.474 km
Eccentricity
0.00672
Inclination
98.5952°
RAAN
264.1091°
Arg. of periapsis
178.7442°
True anomaly
181.37454°
Mean anomaly
181.3931°
Eccentric anomaly
181.3838°
Mean motion
3.6176 °/min
Orbital period
99.51 mins
BSTAR
0.00091601
Loading maneuver chart data...
Computing Atmospheric mass density...
Loading historical data...
Loading historical data...
Loading historical data...
Loading historical data...
Loading historical data...
Loading historical data...
Loading historical data...

Documentation

Showing up to 5 results
|